Change the Weather History Date:

Friday, January 10, 2014

  Actual Average Record
Temperature  
Mean Temperature 60 °F -  
Max Temperature 69 °F 69 °F 77 °F (2003)
Min Temperature 50 °F 52 °F 46 °F (2013)
Degree Days  
Heating Degree Days 6    
Growing Degree Days 10 (Base 50)    
Moisture  
Dew Point 44 °F    
Average Humidity 55    
Maximum Humidity 72    
Minimum Humidity 32    
Precipitation  
Precipitation 0.00 in - - ()
Sea Level Pressure  
Sea Level Pressure 30.07 in    
Wind  
Wind Speed 11 mph ()    
Max Wind Speed 25 mph    
Max Gust Speed -    
Visibility 6.1 miles    
Events      
Averages and records for this station are not official NWS values.
T = Trace of Precipitation, MM = Missing Value Source: Averaged Metar Reports

Daily Weather History Graph

Daily Weather History Graph

Search for Another Location

Airport or City:

Trip Planner

Search our weather history database for the weather conditions in past years. The results will help you decide how hot, cold, wet, or windy it might be!

Date:

Astronomy

Jan. 10, 2014 Rise Set
Actual Time 6:35 AM EET 5:08 PM EET
Civil Twilight 6:10 AM EET 5:34 PM EET
Nautical Twilight 5:41 AM EET 6:02 PM EET
Astronomical Twilight 5:13 AM EET 6:31 PM EET
Moon 12:51 PM EET (1/10) 1:33 AM EET (1/10)
Length of Visible Light 11h 23m
Length of Day
10h 32m
Waxing Gibbous, 72% of the Moon is Illuminated
Jan 10
Waxing Gibbous
Jan 16
Full
Jan 24
Last Quarter
Jan 30
New
Feb 6
First Quarter

Hourly Weather History & Observations

Time (EET) Temp. Dew Point Humidity Pressure Visibility Wind Dir Wind Speed Gust Speed Precip Events Conditions
12:00 AM 55.4 °F 44.6 °F 67% 30.01 in 6.2 mi NW 10.4 mph - N/A   Scattered Clouds
1:00 AM 55.4 °F 42.8 °F 63% 30.01 in 6.2 mi NW 8.1 mph - N/A   Scattered Clouds
2:00 AM 54 °F 42 °F 54% 30.02 in 6 mi 2.3 mph - -  
2:00 AM 53.6 °F 42.8 °F 67% 30.01 in - WNW 2.3 mph - N/A   Clear
3:00 AM 53.6 °F 42.8 °F 67% 30.01 in - NW 5.8 mph - N/A   Clear
4:00 AM 51.8 °F 42.8 °F 71% 30.01 in - NW 5.8 mph - N/A   Clear
5:00 AM 53 °F 42 °F 55% 30.02 in 6 mi NW 11.5 mph - -  
5:00 AM 53.6 °F 41.0 °F 62% 30.01 in - NW 11.5 mph - N/A   Clear
6:00 AM 53.6 °F 42.8 °F 67% 30.04 in - NW 13.8 mph - N/A   Clear
7:00 AM - - N/A% 30.06 in 6.2 mi North - - N/A   Partly Cloudy
8:00 AM 54 °F 43 °F 55% 30.09 in 6 mi NW 13.8 mph - -   Scattered Clouds
8:00 AM 53.6 °F 42.8 °F 67% 30.06 in 6.2 mi NW 13.8 mph - N/A   Partly Cloudy
9:00 AM 60.8 °F 42.8 °F 52% 30.09 in 6.2 mi NW 18.4 mph - N/A   Partly Cloudy
10:00 AM 62.6 °F 44.6 °F 52% 30.09 in 6.2 mi NW 19.6 mph - N/A   Partly Cloudy
11:00 AM 65 °F 45 °F 37% 30.11 in 6 mi NNW 18.4 mph - -  
11:00 AM 64.4 °F 44.6 °F 49% 30.09 in - NNW 18.4 mph - N/A   Clear
12:00 PM 66.2 °F 44.6 °F 46% 30.06 in - NNW 17.3 mph - N/A   Clear
1:00 PM 68.0 °F 46.4 °F 46% 30.04 in - North 18.4 mph - N/A   Clear
2:00 PM 68 °F 45 °F 32% 30.06 in 6 mi North 25.3 mph - -   Partly Cloudy
2:00 PM 68.0 °F 44.6 °F 43% 30.04 in 6.2 mi North 25.3 mph - N/A   Scattered Clouds
3:00 PM 68.0 °F 48.2 °F 49% 30.06 in 6.2 mi North 20.7 mph - N/A   Scattered Clouds
4:00 PM 66.2 °F 44.6 °F 46% 30.06 in 6.2 mi North 23.0 mph - N/A   Partly Cloudy
5:00 PM 64 °F 46 °F 41% 30.09 in 6 mi NNW 18.4 mph - -   Scattered Clouds
5:00 PM 64.4 °F 46.4 °F 52% 30.06 in 6.2 mi NNW 18.4 mph - N/A   Partly Cloudy
6:00 PM 62.6 °F 46.4 °F 55% 30.09 in - NNW 18.4 mph - N/A   Clear
7:00 PM 62.6 °F 44.6 °F 52% 30.12 in - NW 13.8 mph - N/A   Clear
8:00 PM 60 °F 43 °F 42% 30.15 in 6 mi WNW 12.7 mph - -  
8:00 PM 59.0 °F 42.8 °F 55% 30.12 in - WNW 12.7 mph - N/A   Clear
9:00 PM 59.0 °F 46.4 °F 63% 30.15 in - WNW 15.0 mph - N/A   Clear
10:00 PM 57.2 °F 48.2 °F 72% 30.15 in - WNW 11.5 mph - N/A   Clear
11:00 PM 56 °F 46 °F 60% 30.17 in 6 mi NW 10.4 mph - -  
11:00 PM 57.2 °F 46.4 °F 67% 30.15 in - NW 10.4 mph - N/A   Clear